Regional Weather Roundup
Issued by NWS

Home | Current Version | Previous Version | Graphics & Text | Print | Product List | Glossary On
Versions: 1 2 3 4 5 6 7 8 9 10 11 12 13 14 15 16 17 18 19 20 21 22 23 24 25 26 27 28 29 30 31 32 33 34 35 36 37 38 39 40 41 42 43 44 45 46 47 48 49 50
000
ASUS45 KCYS 311310
RWRWY

WYOMING REGIONAL WEATHER ROUNDUP
NATIONAL WEATHER SERVICE CHEYENNE WY
600 AM MST SAT JAN 31 2015

NOTE:  "FAIR" INDICATES FEW OR NO CLOUDS BELOW 12,000 FEET
WITH NO SIGNIFICANT WEATHER AND/OR OBSTRUCTIONS TO VISIBILITY.

WYZ001-311400-
YELLOWSTONE NATIONAL PARK

CITY           SKY/WX    TMP DP  RH WIND       PRES   REMARKS
LK YELLOWSTONE   N/A    -12 -18  74 CALM      30.03F
W YELLOWSTONE  NOT AVBL

$$
WYZ002>013-054>058-071-098>099-311400-
NORTHERN WYOMING

CITY           SKY/WX    TMP DP  RH WIND       PRES   REMARKS
JACKSON        FAIR       5   3  92 N6        30.06R WCI  -6
CODY           FAIR      21  16  79 SE6       29.93F WCI  14
GREYBULL       FOG       25  24  96 CALM      29.97F VSB 1/4
WORLAND        HAZE      20  15  81 CALM      29.96R VSB 1/4
SHERIDAN       FAIR      26  19  74 W5        29.92F WCI  20
BUFFALO        FAIR      28  17  63 NW8       29.90S WCI  20
GILLETTE       FAIR      30  22  72 S8        29.91F WCI  22
HULETT           N/A    N/A N/A N/A MISG        N/A
NEWCASTLE      FAIR      28  23  80 CALM      29.96F

$$
WYZ014>020-022>026-101>103-311400-
CENTRAL WYOMING

CITY           SKY/WX    TMP DP  RH WIND       PRES   REMARKS
BIG PINEY      FAIR      20  17  88 N5        29.97F WCI  13
PINEDALE       FAIR      12   9  85 NW5       29.97F WCI   4
DUBOIS         FAIR      21   3  45 W14       29.93F WCI   8
LANDER         FAIR      27  20  75 W7        29.93S WCI  19
RIVERTON       FAIR      26  23  88 N3        29.94F
CASPER         FAIR      25  21  85 W7        29.93F WCI  17
DOUGLAS        CLOUDY    27  25  92 CALM      29.95S

$$
WYZ021-027>030-104>119-311400-
SOUTHERN WYOMING

CITY           SKY/WX    TMP DP  RH WIND       PRES   REMARKS
EVANSTON       CLOUDY    29  26  89 E7        29.97F WCI  22
KEMMERER       FAIR      28  25  86 CALM      29.97F
FORT BRIDGER   CLOUDY    29  29 100 CALM      30.00F
ROCK SPRINGS   CLOUDY    27  25  92 W6        29.94F WCI  20
DIXON          LGT SNOW  32  31  96 SW3       29.92S
RAWLINS        CLOUDY    31  21  66 N5        29.91F WCI  26
SARATOGA       LGT SNOW  28  28 100 NW6       29.90S WCI  22
LARAMIE        MOCLDY    26  24  92 CALM      29.88F
CHEYENNE       CLOUDY    30  24  78 N7        29.89F WCI  23
TORRINGTON     CLOUDY    32  25  75 N7        29.93F WCI  26
PINE BLUFFS    CLOUDY    32  27  80 NW6       29.91F WCI  26

$$


USA.gov is the U.S. government's official web portal to all federal, state and local government web resources and services.